Mobridge, SD

8:23 AM CDT on September 30, 2016 (GMT -0500)
Mobridge Municipal

Weather History for KMBG - June, 2014

Change the Weather History Date:

Thursday, June 19, 2014

  Actual Average Record
Temperature  
Mean Temperature 66 °F 67 °F  
Max Temperature 75 °F 79 °F 103 °F (1933)
Min Temperature 57 °F 55 °F 39 °F (1948)
Degree Days  
Heating Degree Days 0 2  
Month to date heating degree days 74 62  
Since 1 June heating degree days 74 62  
Since 1 July heating degree days 8744 7946  
Cooling Degree Days 1 4  
Month to date cooling degree days 12 43  
Year to date cooling degree days 62 59  
Since 1 June cooling degree days 12 43  
Growing Degree Days 15 (Base 50)    
Moisture  
Dew Point 57 °F    
Average Humidity 71    
Maximum Humidity 97    
Minimum Humidity 44    
Precipitation  
Precipitation 0.03 in 0.11 in 1.09 in (1951)
Month to date precipitation 6.42 2.27  
Year to date precipitation 12.54 8.29  
Sea Level Pressure  
Sea Level Pressure 29.83 in    
Wind  
Wind Speed 7 mph (WNW)    
Max Wind Speed 20 mph    
Max Gust Speed 24 mph    
Visibility 10 miles    
Events      
T = Trace of Precipitation, MM = Missing Value Source: NWS Daily Summary

Daily Weather History Graph

Daily Weather History Graph

Search for Another Location

Airport or City:

Trip Planner

Search our weather history database for the weather conditions in past years. The results will help you decide how hot, cold, wet, or windy it might be!

Date:

Astronomy

Jun. 19, 2014 Rise Set
Actual Time 5:52 AM CDT 9:33 PM CDT
Civil Twilight 5:14 AM CDT 10:11 PM CDT
Nautical Twilight 4:23 AM CDT 11:02 PM CDT
Astronomical Twilight 3:13 AM CDT 12:12 AM CDT
Moon 1:18 AM CDT (6/19) 1:46 PM CDT (6/19)
Length of Visible Light 16h 57m
Length of Day
15h 41m
Waning Gibbous, 51% of the Moon is Illuminated
Jun 19
Waning Gibbous
Jun 19
Last Quarter
Jun 27
New
Jul 5
First Quarter
Jul 12
Full

Hourly Weather History & Observations

Time (CDT) Temp. Dew Point Humidity Pressure Visibility Wind Dir Wind Speed Gust Speed Precip Events Conditions
12:52 AM 61.0 °F 59.0 °F 93% 29.76 in 10.0 mi NNW 10.4 mph - N/A   Clear
2:52 AM 59.0 °F 57.9 °F 96% 29.76 in 10.0 mi NNW 10.4 mph - N/A   Clear
3:29 AM 60.1 °F 60.1 °F 100% 29.81 in 10.0 mi Calm Calm - N/A   Scattered Clouds
3:37 AM 60.1 °F 60.1 °F 100% 29.82 in 10.0 mi Calm Calm - N/A   Mostly Cloudy
3:52 AM 60.1 °F 59.0 °F 96% 29.80 in 10.0 mi West 3.5 mph - N/A   Overcast
5:52 AM 60.1 °F 59.0 °F 96% 29.82 in 10.0 mi WNW 6.9 mph - N/A   Overcast
6:43 AM 60.1 °F 57.9 °F 93% 29.80 in 10.0 mi NNW 6.9 mph - N/A   Mostly Cloudy
6:52 AM 60.1 °F 57.9 °F 93% 29.78 in 10.0 mi North 10.4 mph - N/A   Partly Cloudy
7:21 AM 60.1 °F 59.0 °F 96% 29.81 in 10.0 mi North 3.5 mph - N/A   Mostly Cloudy
7:42 AM 60.1 °F 59.0 °F 96% 29.82 in 9.0 mi WNW 8.1 mph - N/A   Overcast
7:52 AM 60.1 °F 59.0 °F 96% 29.81 in 9.0 mi WNW 6.9 mph - N/A   Overcast
8:10 AM 60.1 °F 59.0 °F 96% 29.81 in 10.0 mi Calm Calm - N/A   Overcast
8:52 AM 61.0 °F 59.0 °F 93% 29.79 in 10.0 mi WNW 8.1 mph - N/A   Overcast
9:52 AM 62.1 °F 59.0 °F 90% 29.81 in 10.0 mi WNW 9.2 mph - 0.00 in   Overcast
10:52 AM 63.0 °F 59.0 °F 87% 29.84 in 10.0 mi WNW 8.1 mph - 0.03 in   Overcast
11:52 AM 64.0 °F 60.1 °F 87% 29.84 in 10.0 mi NW 9.2 mph - 0.00 in   Overcast
12:52 PM 68.0 °F 60.1 °F 76% 29.85 in 10.0 mi NW 11.5 mph - N/A   Mostly Cloudy
1:52 PM 71.1 °F 57.0 °F 61% 29.85 in 10.0 mi NW 8.1 mph - N/A   Mostly Cloudy
2:52 PM 73.0 °F 54.0 °F 51% 29.84 in 10.0 mi WNW 5.8 mph - N/A   Clear
3:52 PM 73.0 °F 50.0 °F 44% 29.84 in 10.0 mi West 4.6 mph - N/A   Clear
4:52 PM 73.0 °F 50.0 °F 44% 29.84 in 10.0 mi Calm Calm - N/A   Clear
5:52 PM 73.0 °F 53.1 °F 49% 29.86 in 10.0 mi South 8.1 mph - N/A   Scattered Clouds
6:52 PM 66.9 °F 51.1 °F 57% 29.88 in 10.0 mi South 9.2 mph - N/A   Clear
7:52 PM 64.0 °F 55.0 °F 73% 29.88 in 10.0 mi SSE 9.2 mph - N/A   Scattered Clouds
8:52 PM 64.9 °F 55.9 °F 73% 29.89 in 10.0 mi SSE 5.8 mph - N/A   Clear
9:52 PM 59.0 °F 55.9 °F 90% 29.91 in 10.0 mi SE 3.5 mph - N/A   Clear
10:52 PM 57.9 °F 54.0 °F 87% 29.92 in 10.0 mi SSE 4.6 mph - N/A   Clear
11:52 PM 57.0 °F 54.0 °F 89% 29.92 in 10.0 mi ESE 6.9 mph - N/A   Clear